Time,TemperatureF,DewpointF,PressureIn,WindDirection,WindDirectionDegrees,WindSpeedMPH,WindSpeedGustMPH,Humidity,HourlyPrecipIn,Conditions,Clouds,dailyrainin,SoftwareType,DateUTC
2013-01-06 00:02:00,33.3,26.0,30.20,ENE,78,3.0,5.0,73,0.00,,,0.00,weatherlink.com 1.10,2013-01-06 05:02:00,
2013-01-06 00:20:00,33.3,25.0,30.19,East,98,1.0,5.0,72,0.00,,,0.00,weatherlink.com 1.10,2013-01-06 05:20:00,
2013-01-06 00:38:00,33.6,25.0,30.19,ENE,58,4.0,7.0,72,0.00,,,0.00,weatherlink.com 1.10,2013-01-06 05:38:00,
2013-01-06 00:56:00,33.7,25.0,30.19,East,88,2.0,6.0,71,0.00,,,0.00,weatherlink.com 1.10,2013-01-06 05:56:00,
2013-01-06 01:16:00,33.9,25.0,30.17,NE,39,3.0,7.0,71,0.00,,,0.00,weatherlink.com 1.10,2013-01-06 06:16:00,
2013-01-06 01:34:00,34.1,25.0,30.18,ENE,75,5.0,9.0,70,0.00,,,0.00,weatherlink.com 1.10,2013-01-06 06:34:00,
2013-01-06 01:52:00,34.1,26.0,30.17,ESE,103,1.0,7.0,71,0.00,,,0.00,weatherlink.com 1.10,2013-01-06 06:52:00,
2013-01-06 02:12:00,34.2,25.0,30.17,ENE,60,4.0,7.0,70,0.00,,,0.00,weatherlink.com 1.10,2013-01-06 07:12:00,
2013-01-06 02:30:00,34.2,26.0,30.17,ENE,77,3.0,9.0,71,0.00,,,0.00,weatherlink.com 1.10,2013-01-06 07:30:00,
2013-01-06 02:48:00,34.1,26.0,30.16,NE,50,3.0,8.0,71,0.00,,,0.00,weatherlink.com 1.10,2013-01-06 07:48:00,
2013-01-06 03:06:00,34.1,26.0,30.16,ENE,61,2.0,7.0,71,0.00,,,0.00,weatherlink.com 1.10,2013-01-06 08:06:00,
2013-01-06 03:26:00,34.0,26.0,30.16,NE,54,4.0,5.0,72,0.00,,,0.00,weatherlink.com 1.10,2013-01-06 08:26:00,
2013-01-06 03:44:00,34.2,26.0,30.15,ENE,77,0.0,7.0,71,0.00,,,0.00,weatherlink.com 1.10,2013-01-06 08:44:00,
2013-01-06 04:02:00,34.3,26.0,30.14,East,85,2.0,7.0,72,0.00,,,0.00,weatherlink.com 1.10,2013-01-06 09:02:00,
2013-01-06 04:22:00,34.3,26.0,30.14,NE,46,2.0,6.0,72,0.00,,,0.00,weatherlink.com 1.10,2013-01-06 09:22:00,
2013-01-06 04:40:00,34.3,26.0,30.13,NE,41,4.0,7.0,72,0.00,,,0.00,weatherlink.com 1.10,2013-01-06 09:40:00,
2013-01-06 04:58:00,34.2,26.0,30.12,ENE,58,2.0,7.0,72,0.00,,,0.00,weatherlink.com 1.10,2013-01-06 09:58:00,
2013-01-06 05:18:00,34.2,26.0,30.12,East,101,3.0,8.0,73,0.00,,,0.00,weatherlink.com 1.10,2013-01-06 10:18:00,
2013-01-06 05:36:00,34.2,26.0,30.12,ENE,61,4.0,8.0,73,0.00,,,0.00,weatherlink.com 1.10,2013-01-06 10:36:00,
2013-01-06 05:54:00,34.2,26.0,30.12,NE,51,3.0,9.0,73,0.00,,,0.00,weatherlink.com 1.10,2013-01-06 10:54:00,
2013-01-06 06:14:00,34.1,27.0,30.12,East,86,4.0,9.0,74,0.00,,,0.00,weatherlink.com 1.10,2013-01-06 11:14:00,
2013-01-06 06:32:00,34.1,27.0,30.12,NE,40,5.0,9.0,74,0.00,,,0.00,weatherlink.com 1.10,2013-01-06 11:32:00,
2013-01-06 06:50:00,34.0,27.0,30.12,NE,36,5.0,9.0,74,0.00,,,0.00,weatherlink.com 1.10,2013-01-06 11:50:00,
2013-01-06 07:08:00,34.1,27.0,30.12,ENE,72,3.0,7.0,74,0.00,,,0.00,weatherlink.com 1.10,2013-01-06 12:08:00,
2013-01-06 07:28:00,33.9,27.0,30.12,East,93,5.0,9.0,75,0.00,,,0.00,weatherlink.com 1.10,2013-01-06 12:28:00,
2013-01-06 07:46:00,33.9,27.0,30.11,NE,41,4.0,9.0,75,0.00,,,0.00,weatherlink.com 1.10,2013-01-06 12:46:00,
2013-01-06 08:04:00,34.0,27.0,30.11,East,81,1.0,7.0,75,0.00,,,0.00,weatherlink.com 1.10,2013-01-06 13:04:00,
2013-01-06 08:24:00,34.2,27.0,30.11,East,83,3.0,7.0,75,0.00,,,0.00,weatherlink.com 1.10,2013-01-06 13:24:00,
2013-01-06 08:42:00,34.6,27.0,30.12,ENE,77,2.0,6.0,74,0.00,,,0.00,weatherlink.com 1.10,2013-01-06 13:42:00,
2013-01-06 09:00:00,35.1,28.0,30.12,ENE,58,5.0,9.0,74,0.00,,,0.00,weatherlink.com 1.10,2013-01-06 14:00:00,
2013-01-06 09:20:00,35.4,28.0,30.12,ENE,63,7.0,8.0,73,0.00,,,0.00,weatherlink.com 1.10,2013-01-06 14:20:00,
2013-01-06 09:38:00,35.7,28.0,30.12,NE,40,6.0,8.0,73,0.00,,,0.00,weatherlink.com 1.10,2013-01-06 14:38:00,
2013-01-06 09:56:00,36.0,28.0,30.12,ENE,77,9.0,13.0,73,0.00,,,0.00,weatherlink.com 1.10,2013-01-06 14:56:00,
2013-01-06 10:16:00,36.3,28.0,30.12,East,86,10.0,15.0,72,0.00,,,0.00,weatherlink.com 1.10,2013-01-06 15:16:00,
2013-01-06 10:34:00,36.4,28.0,30.12,ENE,68,9.0,12.0,72,0.00,,,0.00,weatherlink.com 1.10,2013-01-06 15:34:00,
2013-01-06 10:52:00,36.8,29.0,30.11,ENE,63,3.0,7.0,72,0.00,,,0.00,weatherlink.com 1.10,2013-01-06 15:52:00,
2013-01-06 11:10:00,37.3,29.0,30.10,ENE,65,2.0,9.0,71,0.00,,,0.00,weatherlink.com 1.10,2013-01-06 16:10:00,
2013-01-06 11:30:00,37.7,29.0,30.09,ENE,58,6.0,14.0,70,0.00,,,0.00,weatherlink.com 1.10,2013-01-06 16:30:00,
2013-01-06 11:48:00,38.1,29.0,30.08,ENE,77,4.0,11.0,69,0.00,,,0.00,weatherlink.com 1.10,2013-01-06 16:48:00,
2013-01-06 12:06:00,38.4,29.0,30.07,ESE,116,1.0,8.0,69,0.00,,,0.00,weatherlink.com 1.10,2013-01-06 17:06:00,
2013-01-06 12:26:00,38.5,29.0,30.05,NE,52,11.0,11.0,69,0.01,,,0.01,weatherlink.com 1.10,2013-01-06 17:26:00,
2013-01-06 12:44:00,38.2,29.0,30.05,NE,53,1.0,13.0,70,0.01,,,0.01,weatherlink.com 1.10,2013-01-06 17:44:00,
2013-01-06 13:21:00,38.8,29.0,30.04,East,82,9.0,10.0,68,0.01,,,0.02,weatherlink.com 1.10,2013-01-06 18:21:00,
2013-01-06 13:39:00,39.0,29.0,30.03,ENE,70,7.0,10.0,67,0.02,,,0.03,weatherlink.com 1.10,2013-01-06 18:39:00,
2013-01-06 13:59:00,38.7,29.0,30.04,ENE,61,5.0,12.0,67,0.03,,,0.04,weatherlink.com 1.10,2013-01-06 18:59:00,
2013-01-06 14:17:00,38.4,29.0,30.04,East,96,4.0,10.0,69,0.02,,,0.04,weatherlink.com 1.10,2013-01-06 19:17:00,
2013-01-06 14:35:00,38.2,29.0,30.04,NNE,29,4.0,11.0,69,0.02,,,0.05,weatherlink.com 1.10,2013-01-06 19:35:00,
2013-01-06 14:53:00,38.2,29.0,30.04,ENE,58,1.0,11.0,70,0.02,,,0.05,weatherlink.com 1.10,2013-01-06 19:53:00,
2013-01-06 15:13:00,38.3,29.0,30.04,ENE,72,4.0,8.0,70,0.02,,,0.06,weatherlink.com 1.10,2013-01-06 20:13:00,
2013-01-06 15:31:00,38.3,29.0,30.04,East,82,1.0,12.0,70,0.01,,,0.06,weatherlink.com 1.10,2013-01-06 20:31:00,
2013-01-06 15:49:00,38.1,29.0,30.05,ENE,63,3.0,12.0,70,0.02,,,0.07,weatherlink.com 1.10,2013-01-06 20:49:00,
2013-01-06 16:09:00,37.8,29.0,30.05,ENE,76,5.0,9.0,71,0.01,,,0.07,weatherlink.com 1.10,2013-01-06 21:09:00,
2013-01-06 16:27:00,37.5,30.0,30.06,ENE,72,1.0,10.0,73,0.02,,,0.08,weatherlink.com 1.10,2013-01-06 21:27:00,
2013-01-06 16:45:00,37.5,30.0,30.07,ENE,70,5.0,10.0,73,0.01,,,0.08,weatherlink.com 1.10,2013-01-06 21:45:00,
2013-01-06 17:05:00,37.2,30.0,30.07,ENE,66,1.0,8.0,74,0.01,,,0.08,weatherlink.com 1.10,2013-01-06 22:05:00,
2013-01-06 17:23:00,37.1,30.0,30.07,ENE,59,1.0,9.0,75,0.01,,,0.09,weatherlink.com 1.10,2013-01-06 22:23:00,
2013-01-06 17:41:00,36.9,30.0,30.08,ENE,66,3.0,9.0,76,0.01,,,0.09,weatherlink.com 1.10,2013-01-06 22:41:00,
2013-01-06 17:59:00,36.6,30.0,30.09,ESE,115,3.0,7.0,78,0.01,,,0.09,weatherlink.com 1.10,2013-01-06 22:59:00,
2013-01-06 18:19:00,36.3,31.0,30.09,East,85,5.0,6.0,80,0.00,,,0.09,weatherlink.com 1.10,2013-01-06 23:19:00,
2013-01-06 18:37:00,36.2,31.0,30.10,East,84,1.0,4.0,80,0.00,,,0.09,weatherlink.com 1.10,2013-01-06 23:37:00,
2013-01-06 18:55:00,36.0,31.0,30.11,ESE,108,0.0,4.0,81,0.00,,,0.09,weatherlink.com 1.10,2013-01-06 23:55:00,
2013-01-06 19:15:00,35.9,31.0,30.12,NE,44,0.0,5.0,81,0.01,,,0.10,weatherlink.com 1.10,2013-01-07 00:15:00,
2013-01-06 19:51:00,35.7,31.0,30.13,ESE,105,2.0,5.0,83,0.01,,,0.10,weatherlink.com 1.10,2013-01-07 00:51:00,
2013-01-06 20:09:00,35.7,31.0,30.13,East,92,2.0,5.0,84,0.00,,,0.10,weatherlink.com 1.10,2013-01-07 01:09:00,
2013-01-06 20:29:00,35.6,32.0,30.14,East,82,2.0,6.0,85,0.00,,,0.10,weatherlink.com 1.10,2013-01-07 01:29:00,
2013-01-06 20:47:00,35.5,31.0,30.14,NE,36,2.0,8.0,85,0.00,,,0.10,weatherlink.com 1.10,2013-01-07 01:47:00,
2013-01-06 21:03:00,35.3,31.0,30.14,East,101,2.0,4.0,85,0.00,,,0.10,weatherlink.com 1.10,2013-01-07 02:03:00,
2013-01-06 21:18:00,35.3,31.0,30.15,East,88,2.0,5.0,85,0.01,,,0.11,weatherlink.com 1.10,2013-01-07 02:18:00,
2013-01-06 21:33:00,35.3,31.0,30.15,ENE,67,2.0,5.0,85,0.01,,,0.11,weatherlink.com 1.10,2013-01-07 02:33:00,
2013-01-06 21:48:00,35.2,31.0,30.16,ESE,108,1.0,7.0,86,0.01,,,0.11,weatherlink.com 1.10,2013-01-07 02:48:00,
2013-01-06 22:03:00,35.1,31.0,30.17,ESE,112,1.0,5.0,86,0.01,,,0.11,weatherlink.com 1.10,2013-01-07 03:03:00,
2013-01-06 22:18:00,35.1,31.0,30.17,East,86,3.0,5.0,86,0.00,,,0.11,weatherlink.com 1.10,2013-01-07 03:18:00,
2013-01-06 22:33:00,35.1,31.0,30.18,ESE,106,1.0,5.0,86,0.00,,,0.11,weatherlink.com 1.10,2013-01-07 03:33:00,
2013-01-06 22:48:00,35.0,31.0,30.19,ESE,116,2.0,7.0,86,0.00,,,0.11,weatherlink.com 1.10,2013-01-07 03:48:00,
2013-01-06 23:03:00,35.0,31.0,30.19,ESE,105,5.0,6.0,86,0.00,,,0.11,weatherlink.com 1.10,2013-01-07 04:03:00,
2013-01-06 23:20:00,34.5,32.0,30.21,SE,133,5.0,11.0,89,0.00,,,0.11,weatherlink.com 1.10,2013-01-07 04:20:00,
2013-01-06 23:38:00,33.8,31.0,30.21,ENE,70,1.0,8.0,90,0.01,,,0.12,weatherlink.com 1.10,2013-01-07 04:38:00,
2013-01-06 23:58:00,33.4,31.0,30.22,ESE,110,2.0,6.0,90,0.01,,,0.12,weatherlink.com 1.10,2013-01-07 04:58:00,